TimeCDT,TemperatureF,Dew PointF,Humidity,Sea Level PressureIn,VisibilityMPH,Wind Direction,Wind SpeedMPH,Gust SpeedMPH,PrecipitationIn,Events,Conditions,WindDirDegrees,DateUTC
12:15 AM,69.8,63.9,81,30.12,10.0,Calm,Calm,-,N/A,,Clear,0,2013-05-27 05:15:00
12:35 AM,69.6,64.8,84,30.11,10.0,Calm,Calm,-,N/A,,Clear,0,2013-05-27 05:35:00
12:55 AM,69.8,64.9,84,30.11,10.0,Calm,Calm,-,N/A,,Clear,0,2013-05-27 05:55:00
1:15 AM,68.9,64.6,86,30.10,10.0,Calm,Calm,-,N/A,,Clear,0,2013-05-27 06:15:00
1:35 AM,68.4,63.9,85,30.10,10.0,Calm,Calm,-,N/A,,Clear,0,2013-05-27 06:35:00
1:55 AM,68.4,64.4,87,30.10,10.0,Calm,Calm,-,N/A,,Clear,0,2013-05-27 06:55:00
2:15 AM,67.6,64.4,89,30.10,10.0,Calm,Calm,-,N/A,,Clear,0,2013-05-27 07:15:00
2:35 AM,67.6,63.9,88,30.09,10.0,Calm,Calm,-,N/A,,Clear,0,2013-05-27 07:35:00
2:55 AM,68.0,64.4,88,30.08,10.0,Calm,Calm,-,N/A,,Clear,0,2013-05-27 07:55:00
3:15 AM,68.7,64.8,87,30.08,10.0,Calm,Calm,-,N/A,,Clear,0,2013-05-27 08:15:00
3:35 AM,68.9,65.1,88,30.08,10.0,Calm,Calm,-,N/A,,Clear,0,2013-05-27 08:35:00
3:55 AM,68.4,64.8,88,30.08,10.0,Calm,Calm,-,N/A,,Clear,0,2013-05-27 08:55:00
4:15 AM,68.9,65.5,89,30.08,10.0,Calm,Calm,-,N/A,,Clear,0,2013-05-27 09:15:00
4:35 AM,68.7,65.5,89,30.08,7.0,Calm,Calm,-,N/A,,Clear,0,2013-05-27 09:35:00
4:55 AM,68.0,65.3,91,30.08,7.0,Calm,Calm,-,N/A,,Clear,0,2013-05-27 09:55:00
5:15 AM,68.2,65.5,91,30.08,7.0,Calm,Calm,-,N/A,,Clear,0,2013-05-27 10:15:00
5:35 AM,67.5,64.9,92,30.08,5.0,Calm,Calm,-,N/A,,Clear,0,2013-05-27 10:35:00
5:55 AM,67.3,64.8,92,30.09,5.0,Calm,Calm,-,N/A,,Clear,0,2013-05-27 10:55:00
6:55 AM,69.8,66.2,88,30.11,6.0,East,6.9,-,N/A,,Scattered Clouds,90,2013-05-27 11:55:00
7:50 AM,77.0,68.0,74,30.13,7.0,Calm,Calm,-,N/A,,Scattered Clouds,0,2013-05-27 12:50:00
8:50 AM,80.6,68.0,65,30.13,7.0,SE,9.2,-,N/A,,Scattered Clouds,130,2013-05-27 13:50:00
9:50 AM,80.6,66.2,61,30.13,7.0,SSE,9.2,-,N/A,,Mostly Cloudy,150,2013-05-27 14:50:00
10:50 AM,82.4,66.2,58,30.12,7.0,South,13.8,-,N/A,,Mostly Cloudy,180,2013-05-27 15:50:00
11:55 AM,84.2,68.0,58,30.12,7.0,SSE,13.8,-,N/A,,Mostly Cloudy,150,2013-05-27 16:55:00
12:55 PM,84.2,69.8,62,30.12,7.0,SSE,15.0,-,N/A,,Mostly Cloudy,150,2013-05-27 17:55:00
1:50 PM,84.2,69.8,62,30.11,7.0,SSE,16.1,-,N/A,,Mostly Cloudy,150,2013-05-27 18:50:00
2:50 PM,84.2,68.0,58,30.08,7.0,SSE,16.1,-,N/A,,Mostly Cloudy,160,2013-05-27 19:50:00
3:48 PM,84.2,69.8,62,30.06,7.0,SSE,11.5,-,N/A,,Scattered Clouds,160,2013-05-27 20:48:00
4:53 PM,84.2,66.2,55,30.06,7.0,SSE,13.8,-,N/A,,Scattered Clouds,160,2013-05-27 21:53:00
5:53 PM,82.4,66.2,58,30.05,7.0,SSE,13.8,-,N/A,,Scattered Clouds,160,2013-05-27 22:53:00
6:48 PM,80.6,64.4,58,30.05,7.0,North,-9999.0,-,N/A,,Scattered Clouds,0,2013-05-27 23:48:00
7:15 PM,80.1,64.0,58,30.03,10.0,SE,11.5,-,N/A,,Clear,140,2013-05-28 00:15:00
7:35 PM,78.8,65.3,63,30.03,10.0,SE,6.9,-,N/A,,Scattered Clouds,140,2013-05-28 00:35:00
7:55 PM,78.1,65.3,65,30.03,10.0,SE,9.2,-,N/A,,Scattered Clouds,140,2013-05-28 00:55:00
8:15 PM,77.7,65.3,65,30.03,10.0,SE,9.2,-,N/A,,Clear,130,2013-05-28 01:15:00
8:35 PM,77.2,64.9,66,30.04,10.0,SE,6.9,-,N/A,,Clear,140,2013-05-28 01:35:00
8:55 PM,76.8,65.3,67,30.04,10.0,SE,5.8,-,N/A,,Clear,130,2013-05-28 01:55:00
9:15 PM,76.1,65.3,69,30.04,10.0,ESE,5.8,-,N/A,,Clear,120,2013-05-28 02:15:00
9:35 PM,74.3,64.9,72,30.04,10.0,ESE,4.6,-,N/A,,Clear,110,2013-05-28 02:35:00
9:55 PM,73.8,63.3,70,30.05,10.0,East,3.5,-,N/A,,Clear,100,2013-05-28 02:55:00
10:15 PM,73.8,62.2,67,30.05,10.0,East,4.6,-,N/A,,Clear,90,2013-05-28 03:15:00
10:35 PM,72.0,62.6,72,30.06,10.0,ESE,3.5,-,N/A,,Clear,110,2013-05-28 03:35:00
10:55 PM,71.1,63.1,76,30.06,7.0,ESE,3.5,-,N/A,,Clear,110,2013-05-28 03:55:00
11:15 PM,71.4,63.9,77,30.06,10.0,ESE,3.5,-,N/A,,Clear,120,2013-05-28 04:15:00
11:35 PM,70.9,63.9,78,30.06,10.0,Calm,Calm,-,N/A,,Clear,0,2013-05-28 04:35:00
11:55 PM,72.1,64.0,76,30.07,10.0,Calm,Calm,-,N/A,,Clear,0,2013-05-28 04:55:00